| time (UTC) | temp C | wind direction | speed KPH | gust KPH | rain 1hr cm | rain 24hr cm | rain mn cm | humidity % | barometer mb |
| 20260505231013 | 11 | 360 | 11.3 | 25.7 | 0.00 | 0.00 | 0.00 | 77 | 1009.7 |
| 20260505230504 | 11 | 360 | 19.3 | 30.6 | 0.00 | 0.00 | 0.00 | 76 | 1009.5 |
| 20260505230015 | 11 | 360 | 17.7 | 30.6 | 0.00 | 0.00 | 0.00 | 76 | 1009.5 |
| 20260505225505 | 11 | 360 | 16.1 | 29.0 | 0.00 | 0.00 | 0.00 | 76 | 1009.5 |
| 20260505225005 | 11 | 360 | 16.1 | 32.2 | 0.00 | 0.00 | 0.00 | 76 | 1009.2 |
| 20260505224513 | 11 | 360 | 17.7 | 32.2 | 0.00 | 0.00 | 0.00 | 75 | 1009.2 |
| 20260505224005 | 11 | 360 | 12.9 | 25.7 | 0.00 | 0.00 | 0.00 | 76 | 1009.1 |
| 20260505223505 | 11 | 360 | 16.1 | 29.0 | 0.00 | 0.00 | 0.00 | 76 | 1009.1 |
| 20260505223015 | 11 | 360 | 17.7 | 29.0 | 0.00 | 0.00 | 0.00 | 76 | 1009.2 |
| 20260505222507 | 11 | 360 | 14.5 | 30.6 | 0.00 | 0.00 | 0.00 | 76 | 1009.1 |
| 20260505222008 | 11 | 360 | 17.7 | 30.6 | 0.00 | 0.00 | 0.00 | 76 | 1009.1 |
| 20260505221522 | 11 | 360 | 17.7 | 30.6 | 0.00 | 0.00 | 0.00 | 76 | 1009.0 |
| 20260505221007 | 11 | 360 | 20.9 | 30.6 | 0.00 | 0.00 | 0.00 | 75 | 1008.9 |
| 20260505220509 | 11 | 360 | 16.1 | 30.6 | 0.00 | 0.00 | 0.00 | 75 | 1008.9 |
| 20260505220025 | 11 | 360 | 17.7 | 29.0 | 0.00 | 0.00 | 0.00 | 74 | 1008.8 |
| 20260505215509 | 11 | 360 | 19.3 | 29.0 | 0.00 | 0.00 | 0.00 | 75 | 1008.8 |
| 20260505215007 | 11 | 360 | 17.7 | 29.0 | 0.00 | 0.00 | 0.00 | 75 | 1008.5 |
| 20260505214506 | 11 | 360 | 17.7 | 30.6 | 0.00 | 0.00 | 0.00 | 75 | 1008.5 |
| 20260505214008 | 11 | 360 | 14.5 | 30.6 | 0.00 | 0.00 | 0.00 | 75 | 1008.5 |
| 20260505213506 | 11 | 360 | 19.3 | 33.8 | 0.00 | 0.00 | 0.00 | 75 | 1008.1 |
| 20260505213017 | 11 | 360 | 16.1 | 33.8 | 0.00 | 0.00 | 0.00 | 75 | 1008.5 |
| 20260505212508 | 11 | 360 | 14.5 | 30.6 | 0.00 | 0.00 | 0.00 | 76 | 1008.4 |
| 20260505212010 | 11 | 360 | 19.3 | 32.2 | 0.00 | 0.00 | 0.00 | 75 | 1008.2 |
| 20260505211517 | 12 | 360 | 19.3 | 33.8 | 0.00 | 0.00 | 0.00 | 75 | 1008.4 |
| 20260505211007 | 12 | 360 | 17.7 | 40.2 | 0.00 | 0.00 | 0.00 | 75 | 1008.0 |
| 20260505210509 | 12 | 360 | 20.9 | 40.2 | 0.00 | 0.00 | 0.00 | 75 | 1007.5 |
| 20260505210023 | 12 | 360 | 16.1 | 40.2 | 0.00 | 0.00 | 0.00 | 76 | 1007.8 |
| 20260505205513 | 12 | 360 | 25.7 | 40.2 | 0.00 | 0.00 | 0.00 | 75 | 1007.0 |
| 20260505205010 | 12 | 360 | 22.5 | 33.8 | 0.00 | 0.00 | 0.00 | 76 | 1007.5 |
| 20260505204526 | 12 | 360 | 17.7 | 30.6 | 0.00 | 0.00 | 0.00 | 76 | 1008.2 |
| 20260505204008 | 12 | 360 | 20.9 | 32.2 | 0.00 | 0.00 | 0.00 | 77 | 1007.5 |
| 20260505203508 | 12 | 360 | 17.7 | 32.2 | 0.00 | 0.00 | 0.00 | 77 | 1008.0 |
| 20260505203037 | 12 | 360 | 16.1 | 35.4 | 0.00 | 0.00 | 0.00 | 78 | 1008.2 |
| 20260505202506 | 12 | 360 | 19.3 | 35.4 | 0.00 | 0.00 | 0.00 | 79 | 1008.2 |
| 20260505202006 | 11 | 360 | 22.5 | 35.4 | 0.00 | 0.00 | 0.00 | 79 | 1008.1 |
| 20260505201527 | 11 | 360 | 20.9 | 33.8 | 0.00 | 0.00 | 0.00 | 79 | 1008.6 |
| 20260505201009 | 12 | 360 | 17.7 | 32.2 | 0.00 | 0.00 | 0.00 | 80 | 1007.9 |
| 20260505200508 | 12 | 360 | 20.9 | 32.2 | 0.00 | 0.00 | 0.00 | 79 | 1008.1 |
| 20260505200021 | 12 | 360 | 12.9 | 33.8 | 0.00 | 0.00 | 0.00 | 80 | 1007.9 |
| 20260505195506 | 12 | 360 | 20.9 | 33.8 | 0.00 | 0.00 | 0.00 | 80 | 1007.5 |
| 20260505195009 | 12 | 360 | 17.7 | 35.4 | 0.00 | 0.00 | 0.00 | 80 | 1007.4 |
| 20260505194523 | 12 | 360 | 19.3 | 35.4 | 0.00 | 0.00 | 0.00 | 80 | 1007.6 |
| 20260505194013 | 12 | 360 | 14.5 | 35.4 | 0.00 | 0.00 | 0.00 | 81 | 1007.6 |
| 20260505193509 | 12 | 360 | 17.7 | 35.4 | 0.00 | 0.00 | 0.00 | 81 | 1007.4 |
| 20260505193032 | 12 | 360 | 17.7 | 35.4 | 0.00 | 0.00 | 0.00 | 81 | 1007.4 |
| 20260505192512 | 12 | 360 | 14.5 | 30.6 | 0.00 | 0.00 | 0.00 | 81 | 1007.5 |
| 20260505192007 | 12 | 360 | 20.9 | 30.6 | 0.00 | 0.00 | 0.00 | 81 | 1007.5 |
| 20260505191525 | 12 | 360 | 16.1 | 30.6 | 0.00 | 0.00 | 0.00 | 81 | 1007.6 |
| 20260505191006 | 12 | 360 | 20.9 | 33.8 | 0.00 | 0.00 | 0.00 | 81 | 1007.5 |
| 20260505190510 | 12 | 360 | 19.3 | 33.8 | 0.00 | 0.00 | 0.00 | 80 | 1007.6 |
| 20260505190015 | 12 | 360 | 19.3 | 33.8 | 0.00 | 0.00 | 0.00 | 80 | 1007.3 |
| 20260505185509 | 12 | 360 | 22.5 | 38.6 | 0.00 | 0.00 | 0.00 | 79 | 1006.9 |
| 20260505185008 | 13 | 360 | 25.7 | 38.6 | 0.00 | 0.00 | 0.00 | 79 | 1006.7 |
| 20260505184520 | 13 | 360 | 20.9 | 37.0 | 0.00 | 0.00 | 0.00 | 79 | 1007.1 |
| 20260505184011 | 13 | 360 | 22.5 | 35.4 | 0.00 | 0.00 | 0.00 | 79 | 1007.2 |
| 20260505183511 | 13 | 360 | 22.5 | 35.4 | 0.00 | 0.00 | 0.00 | 79 | 1007.2 |
| 20260505183026 | 13 | 360 | 19.3 | 35.4 | 0.00 | 0.00 | 0.00 | 79 | 1007.1 |
| 20260505182507 | 13 | 360 | 20.9 | 33.8 | 0.00 | 0.00 | 0.00 | 79 | 1007.0 |
| 20260505182012 | 13 | 360 | 14.5 | 33.8 | 0.00 | 0.00 | 0.00 | 80 | 1007.0 |
| 20260505181530 | 13 | 360 | 20.9 | 33.8 | 0.00 | 0.00 | 0.00 | 80 | 1006.9 |
| 20260505181009 | 13 | 360 | 19.3 | 32.2 | 0.00 | 0.00 | 0.00 | 80 | 1006.8 |
| 20260505180508 | 13 | 360 | 16.1 | 33.8 | 0.00 | 0.00 | 0.00 | 80 | 1006.6 |
| 20260505180027 | 13 | 360 | 20.9 | 33.8 | 0.00 | 0.00 | 0.00 | 80 | 1006.6 |
| 20260505175512 | 13 | 360 | 16.1 | 30.6 | 0.00 | 0.00 | 0.00 | 80 | 1006.4 |
| 20260505175006 | 13 | 360 | 19.3 | 29.0 | 0.00 | 0.00 | 0.00 | 80 | 1006.3 |
| 20260505174528 | 13 | 360 | 14.5 | 27.4 | 0.00 | 0.00 | 0.00 | 81 | 1006.3 |
| 20260505174008 | 13 | 360 | 12.9 | 30.6 | 0.00 | 0.00 | 0.00 | 81 | 1006.3 |
| 20260505173507 | 13 | 360 | 12.9 | 30.6 | 0.00 | 0.00 | 0.00 | 82 | 1006.2 |
| 20260505173028 | 13 | 360 | 12.9 | 29.0 | 0.00 | 0.00 | 0.00 | 81 | 1006.2 |
| 20260505172508 | 13 | 360 | 12.9 | 35.4 | 0.00 | 0.00 | 0.00 | 82 | 1006.3 |
| 20260505172012 | 13 | 360 | 17.7 | 35.4 | 0.00 | 0.00 | 0.00 | 82 | 1006.2 |
| 20260505171526 | 13 | 360 | 16.1 | 29.0 | 0.00 | 0.00 | 0.00 | 82 | 1006.2 |
| 20260505171013 | 13 | 360 | 14.5 | 29.0 | 0.00 | 0.00 | 0.00 | 83 | 1006.2 |
| 20260505170508 | 13 | 360 | 14.5 | 33.8 | 0.00 | 0.00 | 0.00 | 82 | 1005.9 |
| 20260505170028 | 13 | 360 | 17.7 | 35.4 | 0.00 | 0.00 | 0.00 | 83 | 1005.7 |
| 20260505165506 | 13 | 360 | 22.5 | 38.6 | 0.00 | 0.00 | 0.00 | 82 | 1005.6 |
| 20260505165009 | 13 | 360 | 16.1 | 38.6 | 0.00 | 0.00 | 0.00 | 82 | 1005.5 |
| 20260505164503 | 14 | 360 | 17.7 | 37.0 | 0.00 | 0.00 | 0.00 | 82 | 1005.4 |
| 20260505164003 | 13 | 360 | 16.1 | 37.0 | 0.00 | 0.00 | 0.00 | 82 | 1005.4 |
| 20260505163503 | 14 | 360 | 22.5 | 37.0 | 0.00 | 0.00 | 0.00 | 83 | 1005.3 |
| 20260505163004 | 14 | 360 | 24.1 | 37.0 | 0.00 | 0.00 | 0.00 | 83 | 1005.2 |
| 20260505162504 | 14 | 360 | 19.3 | 33.8 | 0.00 | 0.00 | 0.00 | 83 | 1005.2 |
| 20260505162003 | 14 | 360 | 19.3 | 33.8 | 0.00 | 0.00 | 0.00 | 83 | 1005.0 |
| 20260505161506 | 14 | 360 | 16.1 | 43.5 | 0.00 | 0.00 | 0.00 | 82 | 1004.9 |
| 20260505161003 | 14 | 360 | 14.5 | 43.5 | 0.00 | 0.00 | 0.00 | 83 | 1004.8 |
| 20260505160503 | 15 | 360 | 19.3 | 35.4 | 0.00 | 0.00 | 0.00 | 83 | 1004.6 |
| 20260505153003 | 15 | 360 | 20.9 | 35.4 | 0.00 | 0.00 | 0.00 | 82 | 1003.5 |
| 20260505152504 | 16 | 360 | 19.3 | 33.8 | 0.00 | 0.00 | 0.00 | 81 | 1003.4 |
| 20260505152005 | 16 | 360 | 16.1 | 33.8 | 0.00 | 0.00 | 0.00 | 80 | 1003.3 |
| 20260505151503 | 17 | 360 | 11.3 | 29.0 | 0.00 | 0.00 | 0.00 | 78 | 1003.2 |
| 20260505151004 | 18 | 9 | 14.5 | 29.0 | 0.00 | 0.00 | 0.00 | 75 | 1003.0 |
| 20260505150504 | 20 | 28 | 9.7 | 27.4 | 0.00 | 0.00 | 0.00 | 82 | 1002.7 |
| 20260505140502 | 21 | 44 | 0.0 | 3.2 | 0.00 | 0.00 | 0.00 | 79 | 1001.6 |
| 20260505125005 | 20 | 13 | 0.0 | 4.8 | 0.00 | 0.00 | 0.00 | 81 | 1001.3 |
| 20260505124510 | 20 | 12 | 0.0 | 3.2 | 0.00 | 0.00 | 0.00 | 81 | 1001.2 |
| 20260505124005 | 20 | 12 | 0.0 | 6.4 | 0.00 | 0.00 | 0.00 | 80 | 1001.1 |
| 20260505123507 | 20 | 12 | 3.2 | 8.0 | 0.00 | 0.00 | 0.00 | 80 | 1001.1 |
| 20260505123010 | 20 | 258 | 0.0 | 8.0 | 0.00 | 0.00 | 0.00 | 80 | 1000.8 |
| 20260505122508 | 20 | 227 | 4.8 | 14.5 | 0.00 | 0.00 | 0.00 | 80 | 1000.4 |
| 20260505122008 | 20 | 238 | 8.0 | 14.5 | 0.00 | 0.00 | 0.00 | 80 | 1000.2 |
| 20260505121516 | 20 | 202 | 8.0 | 16.1 | 0.00 | 0.00 | 0.00 | 80 | 1000.2 |
| 20260505121007 | 20 | 209 | 8.0 | 16.1 | 0.00 | 0.00 | 0.00 | 80 | 1000.2 |
| 20260505120510 | 20 | 211 | 9.7 | 19.3 | 0.00 | 0.00 | 0.00 | 80 | 1000.1 |
| 20260505120019 | 20 | 234 | 8.0 | 19.3 | 0.00 | 0.00 | 0.00 | 80 | 1000.0 |
| 20260505115508 | 20 | 211 | 11.3 | 22.5 | 0.00 | 0.00 | 0.00 | 79 | 999.9 |
| 20260505115009 | 20 | 209 | 9.7 | 22.5 | 0.00 | 0.00 | 0.00 | 79 | 999.8 |
| 20260505114522 | 20 | 193 | 9.7 | 29.0 | 0.00 | 0.00 | 0.00 | 79 | 999.7 |
| 20260505114006 | 20 | 197 | 9.7 | 29.0 | 0.00 | 0.00 | 0.00 | 79 | 999.5 |
| 20260505113501 | 20 | 189 | 11.3 | 22.5 | 0.00 | 0.00 | 0.00 | 79 | 999.4 |
| 20260505113012 | 20 | 202 | 12.9 | 22.5 | 0.00 | 0.00 | 0.00 | 79 | 999.3 |
| 20260505112503 | 20 | 226 | 11.3 | 20.9 | 0.00 | 0.00 | 0.00 | 78 | 999.2 |
| 20260505112007 | 20 | 194 | 14.5 | 20.9 | 0.00 | 0.00 | 0.00 | 78 | 999.1 |
| 20260505111512 | 20 | 205 | 12.9 | 25.7 | 0.00 | 0.00 | 0.00 | 78 | 999.1 |
| 20260505111005 | 20 | 227 | 14.5 | 25.7 | 0.00 | 0.00 | 0.00 | 78 | 999.2 |
| 20260505110508 | 20 | 207 | 11.3 | 19.3 | 0.00 | 0.00 | 0.00 | 78 | 999.2 |
| 20260505102005 | 21 | 224 | 11.3 | 27.4 | 0.00 | 0.00 | 0.00 | 76 | 999.0 |
| 20260505101506 | 21 | 209 | 12.9 | 25.7 | 0.00 | 0.00 | 0.00 | 76 | 999.0 |
| 20260505101004 | 21 | 198 | 14.5 | 25.7 | 0.00 | 0.00 | 0.00 | 76 | 998.9 |
| 20260505100507 | 21 | 202 | 12.9 | 22.5 | 0.00 | 0.00 | 0.00 | 76 | 999.0 |
| 20260505100014 | 21 | 200 | 12.9 | 24.1 | 0.00 | 0.00 | 0.00 | 76 | 998.9 |
| 20260505095507 | 21 | 179 | 14.5 | 24.1 | 0.00 | 0.00 | 0.00 | 76 | 998.9 |
| 20260505095007 | 21 | 180 | 12.9 | 22.5 | 0.00 | 0.00 | 0.00 | 76 | 998.8 |
| 20260505094518 | 21 | 203 | 11.3 | 24.1 | 0.00 | 0.00 | 0.00 | 77 | 998.9 |
| 20260505094009 | 21 | 176 | 14.5 | 24.1 | 0.00 | 0.00 | 0.00 | 77 | 998.9 |
| 20260505093509 | 21 | 169 | 14.5 | 24.1 | 0.00 | 0.00 | 0.00 | 77 | 998.9 |
| 20260505093029 | 21 | 170 | 11.3 | 24.1 | 0.00 | 0.00 | 0.00 | 76 | 999.0 |
| 20260505092512 | 21 | 197 | 14.5 | 24.1 | 0.00 | 0.00 | 0.00 | 76 | 999.0 |
| 20260505092012 | 21 | 209 | 12.9 | 22.5 | 0.00 | 0.00 | 0.00 | 76 | 998.9 |
| 20260505091528 | 21 | 200 | 14.5 | 25.7 | 0.00 | 0.00 | 0.00 | 76 | 999.0 |
| 20260505091011 | 21 | 232 | 12.9 | 25.7 | 0.00 | 0.00 | 0.00 | 76 | 999.1 |
| 20260505090504 | 21 | 218 | 12.9 | 25.7 | 0.00 | 0.00 | 0.00 | 76 | 999.2 |
| 20260505090010 | 21 | 194 | 9.7 | 24.1 | 0.00 | 0.00 | 0.00 | 76 | 999.1 |
| 20260505085507 | 21 | 162 | 12.9 | 29.0 | 0.00 | 0.00 | 0.00 | 76 | 999.2 |
| 20260505085009 | 21 | 217 | 12.9 | 29.0 | 0.00 | 0.00 | 0.00 | 76 | 999.3 |
| 20260505084519 | 21 | 220 | 11.3 | 24.1 | 0.00 | 0.00 | 0.00 | 76 | 999.3 |
| 20260505084009 | 21 | 240 | 11.3 | 24.1 | 0.00 | 0.00 | 0.00 | 76 | 999.3 |
| 20260505083507 | 21 | 180 | 11.3 | 24.1 | 0.00 | 0.00 | 0.00 | 76 | 999.3 |
| 20260505083020 | 21 | 205 | 9.7 | 25.7 | 0.00 | 0.00 | 0.00 | 76 | 999.2 |
| 20260505082508 | 21 | 202 | 12.9 | 25.7 | 0.00 | 0.00 | 0.00 | 76 | 999.3 |
| 20260505082012 | 21 | 214 | 11.3 | 25.7 | 0.00 | 0.00 | 0.00 | 76 | 999.5 |
| 20260505081529 | 21 | 209 | 11.3 | 20.9 | 0.00 | 0.00 | 0.00 | 76 | 999.5 |
| 20260505081011 | 21 | 201 | 11.3 | 20.9 | 0.00 | 0.00 | 0.00 | 76 | 999.6 |
| 20260505080509 | 21 | 213 | 12.9 | 20.9 | 0.00 | 0.00 | 0.00 | 76 | 999.6 |
| 20260505080026 | 21 | 213 | 12.9 | 20.9 | 0.00 | 0.00 | 0.00 | 76 | 999.6 |
| 20260505075509 | 21 | 185 | 11.3 | 24.1 | 0.00 | 0.00 | 0.00 | 76 | 999.5 |
| 20260505075004 | 21 | 205 | 11.3 | 24.1 | 0.00 | 0.00 | 0.00 | 76 | 999.6 |
| 20260505074517 | 22 | 155 | 11.3 | 24.1 | 0.00 | 0.00 | 0.00 | 76 | 999.8 |
| 20260505074008 | 21 | 200 | 14.5 | 22.5 | 0.00 | 0.00 | 0.00 | 76 | 999.9 |
| 20260505073504 | 21 | 188 | 11.3 | 24.1 | 0.00 | 0.00 | 0.00 | 76 | 1000.0 |
| 20260505073004 | 21 | 227 | 11.3 | 24.1 | 0.00 | 0.00 | 0.00 | 76 | 999.9 |
| 20260505072503 | 21 | 206 | 12.9 | 25.7 | 0.00 | 0.00 | 0.00 | 76 | 999.8 |
| 20260505072003 | 21 | 190 | 14.5 | 24.1 | 0.00 | 0.00 | 0.00 | 76 | 1000.0 |
| 20260505071504 | 21 | 202 | 11.3 | 20.9 | 0.00 | 0.00 | 0.00 | 76 | 1000.1 |
| 20260505071003 | 21 | 183 | 12.9 | 20.9 | 0.00 | 0.00 | 0.00 | 76 | 1000.1 |
| 20260505070507 | 21 | 198 | 12.9 | 24.1 | 0.00 | 0.00 | 0.00 | 76 | 1000.1 |
| 20260505070007 | 21 | 190 | 11.3 | 24.1 | 0.00 | 0.00 | 0.00 | 76 | 1000.3 |
| 20260505065508 | 21 | 174 | 11.3 | 24.1 | 0.00 | 0.00 | 0.00 | 76 | 1000.3 |
| 20260505065005 | 21 | 157 | 12.9 | 30.6 | 0.00 | 0.00 | 0.00 | 76 | 1000.4 |
| 20260505064511 | 21 | 214 | 14.5 | 30.6 | 0.00 | 0.00 | 0.00 | 76 | 1000.5 |
| 20260505064009 | 21 | 181 | 9.7 | 27.4 | 0.00 | 0.00 | 0.00 | 76 | 1000.5 |
| 20260505063504 | 21 | 159 | 14.5 | 27.4 | 0.00 | 0.00 | 0.00 | 76 | 1000.5 |
| 20260505063014 | 21 | 188 | 14.5 | 24.1 | 0.00 | 0.00 | 0.00 | 75 | 1000.5 |
| 20260505062510 | 21 | 188 | 11.3 | 22.5 | 0.00 | 0.00 | 0.00 | 75 | 1000.5 |
| 20260505062010 | 21 | 186 | 9.7 | 25.7 | 0.00 | 0.00 | 0.00 | 75 | 1000.5 |
| 20260505061502 | 22 | 189 | 11.3 | 25.7 | 0.00 | 0.00 | 0.00 | 75 | 1000.6 |
| 20260505061001 | 22 | 184 | 12.9 | 24.1 | 0.00 | 0.00 | 0.00 | 74 | 1000.6 |
| 20260505060504 | 22 | 176 | 14.5 | 24.1 | 0.00 | 0.00 | 0.00 | 74 | 1000.6 |
| 20260505060011 | 22 | 211 | 14.5 | 24.1 | 0.00 | 0.00 | 0.00 | 74 | 1000.7 |
| 20260505055502 | 22 | 207 | 9.7 | 24.1 | 0.00 | 0.00 | 0.00 | 74 | 1000.8 |
| 20260505055003 | 22 | 217 | 11.3 | 24.1 | 0.00 | 0.00 | 0.00 | 74 | 1000.9 |
| 20260505054506 | 22 | 178 | 16.1 | 32.2 | 0.00 | 0.00 | 0.00 | 74 | 1000.9 |
| 20260505054006 | 22 | 206 | 17.7 | 33.8 | 0.00 | 0.00 | 0.00 | 74 | 1000.9 |
| 20260505053507 | 22 | 180 | 16.1 | 33.8 | 0.00 | 0.00 | 0.00 | 74 | 1000.9 |
| 20260505053014 | 22 | 178 | 11.3 | 27.4 | 0.00 | 0.00 | 0.00 | 73 | 1000.9 |
| 20260505052504 | 22 | 216 | 16.1 | 32.2 | 0.00 | 0.00 | 0.00 | 73 | 1000.9 |
| 20260505052008 | 22 | 206 | 16.1 | 32.2 | 0.00 | 0.00 | 0.00 | 73 | 1001.0 |
| 20260505051517 | 22 | 182 | 14.5 | 22.5 | 0.00 | 0.00 | 0.00 | 73 | 1001.1 |
| 20260505051009 | 22 | 182 | 11.3 | 24.1 | 0.00 | 0.00 | 0.00 | 72 | 1001.2 |
| 20260505050510 | 22 | 193 | 11.3 | 24.1 | 0.00 | 0.00 | 0.00 | 72 | 1001.2 |
| 20260505041527 | 22 | 188 | 11.3 | 25.7 | 0.00 | 0.00 | 0.00 | 71 | 1001.4 |
| 20260505041007 | 22 | 186 | 11.3 | 33.8 | 0.00 | 0.00 | 0.00 | 71 | 1001.4 |
| 20260505040509 | 22 | 203 | 12.9 | 33.8 | 0.00 | 0.00 | 0.00 | 71 | 1001.4 |
| 20260505040018 | 23 | 184 | 12.9 | 24.1 | 0.00 | 0.00 | 0.00 | 71 | 1001.5 |
| 20260505035513 | 23 | 197 | 8.0 | 24.1 | 0.00 | 0.00 | 0.00 | 71 | 1001.7 |
| 20260505035011 | 23 | 217 | 9.7 | 24.1 | 0.00 | 0.00 | 0.00 | 70 | 1001.7 |
| 20260505034523 | 23 | 219 | 11.3 | 25.7 | 0.00 | 0.00 | 0.00 | 70 | 1001.7 |
| 20260505034002 | 23 | 147 | 11.3 | 25.7 | 0.00 | 0.00 | 0.00 | 70 | 1001.5 |
| 20260505033503 | 23 | 360 | 14.5 | 30.6 | 0.00 | 0.00 | 0.00 | 69 | 1001.5 |
| 20260505033016 | 23 | 190 | 11.3 | 30.6 | 0.00 | 0.00 | 0.00 | 69 | 1001.6 |
| 20260505032502 | 23 | 200 | 12.9 | 27.4 | 0.00 | 0.00 | 0.00 | 69 | 1001.4 |
| 20260505032009 | 23 | 185 | 12.9 | 27.4 | 0.00 | 0.00 | 0.00 | 68 | 1001.3 |
| 20260505031511 | 23 | 360 | 12.9 | 27.4 | 0.00 | 0.00 | 0.00 | 68 | 1001.5 |
| 20260505031008 | 23 | 360 | 12.9 | 27.4 | 0.00 | 0.00 | 0.00 | 68 | 1001.4 |
| 20260505030507 | 23 | 187 | 11.3 | 24.1 | 0.00 | 0.00 | 0.00 | 67 | 1001.3 |
| 20260505030029 | 23 | 201 | 12.9 | 29.0 | 0.00 | 0.00 | 0.00 | 67 | 1001.2 |
| 20260505025508 | 23 | 194 | 14.5 | 29.0 | 0.00 | 0.00 | 0.00 | 67 | 1001.4 |
| 20260505025009 | 23 | 200 | 11.3 | 25.7 | 0.00 | 0.00 | 0.00 | 66 | 1001.3 |
| 20260505024522 | 23 | 176 | 12.9 | 25.7 | 0.00 | 0.00 | 0.00 | 66 | 1001.2 |
| 20260505024008 | 24 | 183 | 11.3 | 25.7 | 0.00 | 0.00 | 0.00 | 66 | 1001.3 |
| 20260505023509 | 24 | 194 | 14.5 | 33.8 | 0.00 | 0.00 | 0.00 | 66 | 1001.2 |
| 20260505023023 | 24 | 146 | 11.3 | 33.8 | 0.00 | 0.00 | 0.00 | 65 | 1001.2 |
| 20260505022503 | 24 | 223 | 11.3 | 27.4 | 0.00 | 0.00 | 0.00 | 65 | 1001.1 |
| 20260505022004 | 24 | 149 | 9.7 | 25.7 | 0.00 | 0.00 | 0.00 | 65 | 1001.0 |
| 20260505021508 | 24 | 209 | 11.3 | 25.7 | 0.00 | 0.00 | 0.00 | 65 | 1001.1 |
| 20260505021007 | 24 | 205 | 11.3 | 30.6 | 0.00 | 0.00 | 0.00 | 64 | 1001.1 |
| 20260505020506 | 24 | 196 | 12.9 | 30.6 | 0.00 | 0.00 | 0.00 | 64 | 1001.0 |
| 20260505020014 | 24 | 230 | 12.9 | 25.7 | 0.00 | 0.00 | 0.00 | 64 | 1001.0 |
| 20260505015507 | 24 | 183 | 11.3 | 22.5 | 0.00 | 0.00 | 0.00 | 64 | 1001.0 |
| 20260505015008 | 24 | 175 | 11.3 | 29.0 | 0.00 | 0.00 | 0.00 | 63 | 1000.9 |
| 20260505014520 | 25 | 205 | 14.5 | 29.0 | 0.00 | 0.00 | 0.00 | 63 | 1000.9 |
| 20260505014009 | 25 | 173 | 11.3 | 24.1 | 0.00 | 0.00 | 0.00 | 62 | 1001.0 |
| 20260505013509 | 25 | 212 | 11.3 | 27.4 | 0.00 | 0.00 | 0.00 | 62 | 1000.9 |
| 20260505013022 | 25 | 140 | 9.7 | 27.4 | 0.00 | 0.00 | 0.00 | 62 | 1000.8 |
| 20260505012510 | 25 | 132 | 11.3 | 32.2 | 0.00 | 0.00 | 0.00 | 62 | 1000.7 |
| 20260505012011 | 25 | 146 | 14.5 | 32.2 | 0.00 | 0.00 | 0.00 | 61 | 1000.8 |
| 20260505011526 | 25 | 159 | 14.5 | 30.6 | 0.00 | 0.00 | 0.00 | 61 | 1000.9 |
| 20260505011003 | 25 | 219 | 12.9 | 33.8 | 0.00 | 0.00 | 0.00 | 61 | 1000.9 |
| 20260505010503 | 25 | 360 | 16.1 | 33.8 | 0.00 | 0.00 | 0.00 | 61 | 1000.9 |
| 20260505010013 | 25 | 360 | 9.7 | 30.6 | 0.00 | 0.00 | 0.00 | 61 | 1001.0 |
| 20260505005504 | 25 | 189 | 12.9 | 30.6 | 0.00 | 0.00 | 0.00 | 60 | 1001.1 |
| 20260505005007 | 25 | 360 | 12.9 | 29.0 | 0.00 | 0.00 | 0.00 | 60 | 1001.3 |
| 20260505004534 | 25 | 185 | 12.9 | 29.0 | 0.00 | 0.00 | 0.00 | 59 | 1001.2 |
| 20260505004008 | 26 | 192 | 12.9 | 27.4 | 0.00 | 0.00 | 0.00 | 59 | 1001.1 |
| 20260505003510 | 26 | 182 | 9.7 | 29.0 | 0.00 | 0.00 | 0.00 | 59 | 1001.2 |
| 20260505003022 | 26 | 196 | 12.9 | 29.0 | 0.00 | 0.00 | 0.00 | 58 | 1001.1 |
| 20260505002506 | 26 | 201 | 14.5 | 27.4 | 0.00 | 0.00 | 0.00 | 58 | 1001.1 |
| 20260505002007 | 26 | 181 | 11.3 | 25.7 | 0.00 | 0.00 | 0.00 | 58 | 1001.2 |
| 20260505001524 | 26 | 205 | 11.3 | 27.4 | 0.00 | 0.00 | 0.00 | 58 | 1001.3 |
| 20260505001013 | 26 | 171 | 11.3 | 27.4 | 0.00 | 0.00 | 0.00 | 58 | 1001.2 |
| 20260505000507 | 26 | 155 | 11.3 | 30.6 | 0.00 | 0.00 | 0.00 | 57 | 1001.2 |
| 20260505000026 | 26 | 165 | 16.1 | 30.6 | 0.00 | 0.00 | 0.00 | 57 | 1001.3 |
| 20260504235510 | 26 | 174 | 14.5 | 29.0 | 0.00 | 0.00 | 0.00 | 57 | 1001.5 |
| 20260504235008 | 26 | 213 | 12.9 | 27.4 | 0.00 | 0.00 | 0.00 | 57 | 1001.5 |
| 20260504234525 | 26 | 202 | 14.5 | 35.4 | 0.00 | 0.00 | 0.00 | 57 | 1001.6 |
| 20260504234006 | 26 | 194 | 17.7 | 35.4 | 0.00 | 0.00 | 0.00 | 56 | 1001.6 |
| 20260504233507 | 27 | 163 | 19.3 | 35.4 | 0.00 | 0.00 | 0.00 | 56 | 1001.7 |
| 20260504233018 | 27 | 207 | 14.5 | 35.4 | 0.00 | 0.00 | 0.00 | 56 | 1001.7 |
| 20260504232508 | 27 | 200 | 16.1 | 43.5 | 0.00 | 0.00 | 0.00 | 55 | 1001.7 |
| 20260504232008 | 27 | 192 | 17.7 | 43.5 | 0.00 | 0.00 | 0.00 | 54 | 1001.7 |
| 20260504231538 | 27 | 161 | 17.7 | 33.8 | 0.00 | 0.00 | 0.00 | 54 | 1001.6 |